#timestamp,LO_Frequency,Hit,StdDev 
1654311615.5,286046998.2,N
1654311635.3,286047000.9,N
1654311655.2,286047000.7,N
1654311675.0,286046998.2,N
1654311675.9,286046998.2,N
1654311695.7,286047000.5,N
1654311715.6,286046998.6,N
1654311735.4,286046998.2,N
1654311755.3,286047001.2,N
1654311775.1,286047000.8,N
1654311776.0,286047000.8,N
1654311795.8,286047000.9,N
1654311815.7,286047001.2,N
1654311835.5,286047000.8,N
1654311855.4,286047002.8,N
1654311875.2,286047001.6,N
1654311895.0,286047001.6,N
1654311895.9,286047001.6,N
1654311915.8,286047001.9,N
1654311935.6,286047002.0,N
1654311955.4,286047002.1,N
1654311975.3,286047001.5,N
1654311995.1,286047002.1,N
1654312015.9,286046999.7,N
1654312035.7,286047002.4,N
1654312055.5,286047002.7,N
1654312075.4,286047002.2,N
1654312095.2,286047002.0,N
1654312115.0,286047002.3,N
1654312116.0,286047002.3,N
1654312135.8,286047002.4,N
1654312155.6,286047002.4,N
1654312175.5,286046999.9,N
1654312195.3,286047000.1,N
1654312215.1,286046999.9,N
1654312235.9,286047000.1,N
1654312255.7,286046999.7,N
1654312275.6,286047001.9,N
1654312295.4,286047002.7,N
1654312315.2,286047002.4,N
1654312335.1,286047002.4,N
1654312336.0,286047002.4,N
1654312355.8,286047001.5,N
1654312375.7,286047002.1,N
1654312395.5,286046999.7,N
1654312415.3,286047000.3,N
1654312435.2,286046999.7,N
1654312455.0,286047000.4,N
1654312455.9,286047000.4,N
1654312475.7,286047000.3,N
1654312495.6,286047002.8,N
1654312515.4,286047000.6,N
1654312535.3,286047000.4,N
1654312555.1,286047001.2,N
1654312556.0,286047001.2,N
1654312575.8,286047001.2,N
1654312595.7,286047000.3,N
1654312615.5,286047000.8,N
1654312635.4,286047000.9,N
1654312655.2,286046999.8,N
1654312675.0,286047002.3,N
1654312675.9,286047002.3,N
1654312695.8,286047000.1,N
1654312715.6,286047000.4,N
1654312735.4,286047000.7,N
1654312755.3,286047002.2,N
1654312775.1,286047002.5,N
1654312795.9,286046999.7,N
1654312815.7,286047000.2,N
1654312835.5,286047002.4,N
1654312855.4,286046999.7,N
1654312875.2,286047002.3,N
1654312895.0,286047002.6,N
1654312895.9,286047002.6,N
1654312915.8,286047001.7,N
1654312935.6,286047002.5,N
1654312955.5,286047002.7,N
1654312975.3,286046999.7,N
1654312995.1,286047002.6,N
1654313015.9,286046999.9,N
1654313035.7,286047000.3,N
1654313055.5,286047001.2,N
1654313075.4,286047000.5,N
1654313095.2,286047000.2,N
1654313115.1,286046999.8,N
1654313116.0,286046999.8,N
1654313135.8,286047000.7,N
1654313155.6,286047001.6,N
1654313175.5,286047002.3,N
1654313195.3,286046999.8,N
1654313215.1,286047002.3,N
1654313235.9,286047002.5,N
1654313255.7,286047002.5,N
1654313275.6,286047002.5,N
1654313295.4,286047001.5,N
1654313315.2,286047001.8,N
1654313335.1,286047004.2,Y
1654313336.0,286047004.2,P
1654313355.8,286047002.8,N
1654313375.7,286047002.7,N
1654313395.5,286047002.6,N
1654313415.3,286047002.8,Y
1654313435.2,286046999.5,P
1654313455.0,286046999.0,N
1654313455.9,286046999.0,N
1654313475.7,286047001.1,N
1654313495.6,286047001.2,N
1654313515.4,286047000.7,N
1654313535.3,286046999.0,N
1654313555.1,286046998.4,N
1654313556.0,286046998.4,N
1654313575.8,286046996.6,N
1654313595.7,286046999.0,N
1654313615.5,286046999.2,N
1654313635.4,286046999.4,N
1654313655.2,286046997.4,N
1654313675.0,286046997.4,N
1654313675.9,286046997.4,N
1654313695.8,286046997.3,N
1654313745.6,286046996.9,E
1654313755.6,286046998.5,N
1654313775.4,286046999.8,P
1654313795.2,286047002.8,P
1654313815.1,286047001.9,N
1654313816.0,286047001.9,N
1654313835.8,286047002.3,N
1654313855.7,286047002.1,N
1654313875.5,286047001.6,N
1654313895.3,286047000.2,N
1654313915.2,286047002.3,N
1654313935.0,286047002.6,N
1654313935.9,286047002.6,N
1654313955.8,286047000.5,N
1654313975.6,286047000.9,N
1654313995.4,286047000.8,N
1654314015.3,286047000.6,N
1654314035.1,286047002.7,N
1654314055.9,286047000.2,N
1654314075.7,286047002.4,N
1654314095.5,286047002.8,N
1654314115.4,286047002.2,N
1654314135.2,286047002.2,N
1654314155.1,286047002.2,N
1654314156.0,286047002.2,N
1654314175.8,286047002.7,N
1654314195.6,286047000.9,N
1654314215.5,286047000.4,N
1654314235.3,286047000.9,N
1654314255.1,286047001.2,N
1654314275.9,286047001.1,N
1654314295.7,286047000.8,N
1654314315.6,286046998.1,N
1654314335.4,286047001.2,N
1654314355.2,286046998.5,N
1654314375.1,286047000.5,N
1654314376.0,286047000.5,N
1654314395.8,286047000.9,N
1654314415.7,286047000.9,N
1654314435.5,286047000.7,N
1654314455.3,286047000.9,N
1654314475.2,286047000.4,N
1654314495.0,286047000.2,N
1654314495.9,286047000.2,N
1654314515.7,286047000.0,N
1654314535.6,286047002.3,N
1654314555.4,286047002.4,N
1654314575.3,286047000.0,N
1654314595.1,286047000.1,N
1654314596.0,286047000.1,N
1654314615.8,286047002.5,N
1654314635.7,286047002.1,N
1654314655.5,286047001.9,N
1654314675.4,286047002.6,N
1654314695.2,286047002.3,N
1654314715.0,286046999.7,N
1654314715.9,286046999.7,N
1654314735.8,286047001.6,N
1654314755.6,286047001.5,N
1654314775.5,286047001.6,N
1654314795.3,286047001.9,N
1654314815.1,286047002.5,N
1654314835.9,286047002.5,N
1654314855.7,286047001.7,N
1654314875.5,286047002.0,N
1654314895.4,286047002.0,N
1654314915.2,286047002.3,N
1654314935.1,286047002.3,N
1654314936.0,286047002.3,N
1654314955.8,286047002.1,N
1654314975.6,286047001.7,N
1654314995.5,286047001.5,N
1654315015.3,286047002.0,N
1654315035.2,286047004.3,Y
1654315055.9,286047000.5,P
1654315075.7,286046998.9,N
1654315095.6,286046998.9,N
1654315115.4,286046998.3,N
1654315135.2,286046998.7,N
1654315155.1,286046998.9,N
1654315156.0,286046998.9,N
1654315175.8,286046998.1,N
1654315195.7,286046998.4,N
